Regional Weather Roundup
Issued by NWS Wakefield, VA

Home | Current Version | Previous Version | Text Only | Print | Product List | Glossary Off
Versions: 1 2 3 4 5 6 7 8 9 10 11 12 13 14 15 16 17 18 19 20 21 22 23 24 25 26

000
ASUS41 KAKQ 270315
RWRAKQ

REGIONAL WEATHER ROUNDUP
NATIONAL WEATHER SERVICE WAKEFIELD VA
1100 PM EDT TUE JUL 26 2016

Note: "fair" indicates few or no clouds below 12,000 feet with no
significant weather and/or obstructions to visibility. * = Denotes
station may not report precipitation (e.g., rain,snow,etc.),
thunder or fog.

VAZ042-051-052>054-056-270400-
NORTHERN VIRGINIA

CITY           SKY/WX    TMP DP  RH WIND       PRES   REMARKS
WASH NATIONAL  CLOUDY    85  71  63 SW8       29.94S
DULLES         MOCLDY    82  73  74 S7        29.95S
FORT BELVOIR   FAIR      82  71  69 VRB1      29.93F
QUANTICO       FAIR      81  77  88 W5        29.94F
FREDERICKSBRG* DRIZZLE   78  78 100 S3        29.94F
STAFFORD*      FAIR      78  73  86 CALM      29.98F
WARRENTON      FAIR      76  71  83 CALM      29.95F
CULPEPER*      FAIR      76  74  95 CALM      29.97F
MANASSAS*      FAIR      81  75  83 CALM      29.95S
LEESBURG*      FAIR      81  77  89 SW9       29.95F
WINCHESTER     FAIR      79  70  73 SW5       29.97S
FRONT ROYAL*   FAIR      77  72  83 SW3       29.96F
LURAY*         FAIR      73  73 100 CALM      30.00S
$$

VAZ048-049-060>072-079>083-270400-
CENTRAL AND SOUTH CENTRAL VIRGINIA

CITY           SKY/WX    TMP DP  RH WIND       PRES   REMARKS
RICHMOND       CLOUDY    77  73  87 NW13      29.97R THUNDER FOG
CHESTERFIELD*  CLOUDY    75  61  60 N16       30.03R THUNDER
PETERSBURG*    LGT RAIN  79  79 100 NW10      30.00R
HANOVER        TSTM      75  71  87 S9        29.99F
TAPPAHANNOCK*  TSTM      82  81  97 W3        29.96S
QUINTON*       FAIR      78  77  98 W7        29.97R
CHARLOTTSVILLE MOCLDY    78  74  87 SE6       30.00R
GORDONSVILLE*  MOCLDY    75  71  87 SW8       29.99F
ORANGE*          N/A     73  73 100 S6        30.01R
LOUISA*        DRIZZLE   77  75  94 S6        29.98F
BUMPASS*       FAIR      73  71  95 SW6       29.99S
FARMVILLE*     FAIR      74  74 100 N6        29.99R THUNDER
CREWE*         CLOUDY    76  76 100 N6        29.99R
FORT PICKETT*  MOCLDY    76  76  98 NE8       29.99R
CHASE CITY*    FAIR      76  75  94 CALM      29.98S
CLARKSVILLE*   MOCLDY    79  73  83 E3        29.97R
SOUTH HILL*    FAIR      74  73  97 N3        30.03R
LAWRENCEVILLE* FAIR      74  74 100 CALM      29.99R
EMPORIA*       MOCLDY    73  73 100 CALM      29.99R
$$

VAZ088>098-270400-
SOUTHEAST VIRGINIA

CITY           SKY/WX    TMP DP  RH WIND       PRES   REMARKS
NORFOLK        FAIR      81  72  74 S6        29.94R
VIRGINIA BEACH CLOUDY    84  72  67 SW6       29.93S
NORFOLK NAVAL  MOCLDY    80  72  76 SW5       29.96R
WEST POINT*    FAIR      80  77  91 CALM      29.96S
SALUDA*        FAIR      81  79  95 CALM      29.94S
NEWPORT NEWS   FAIR      81  75  82 SW7       29.95R
LANGLEY AFB    FAIR      81  74  79 VRB2      29.95R
FORT EUSTIS    FAIR      78  77  95 CALM      29.94R
WILLIAMSBURG*  FAIR      82  75  78 SW3       29.96R
HR EXEC AP*    FAIR      75  72  88 SW3       29.97S
FRANKLIN*      FAIR      75  73  93 CALM      29.97R
US460-WAKEFLD  FAIR      79  73  82 SW3       29.96R
$$

VAZ020-022-025-037-045-270400-
WEST CENTRAL AND SOUTHWEST VIRGINIA

CITY           SKY/WX    TMP DP  RH WIND       PRES   REMARKS
STAUNTON*      FAIR      72  72  98 SW3       30.05R FOG
WAYNESBORO*    FAIR      73  71  94 CALM      30.04R
HOT SPRINGS VA FAIR      68  68 100 CALM      30.15F FOG
LYNCHBURG      TSTM      72  71  97 S6        30.04F
DANVILLE       MOCLDY    80  76  87 CALM      29.98R
SOUTH BOSTON*  FAIR      79  77  94 NE3       29.99R
MARTINSVILLE   FAIR      78  75  91 CALM      30.03R
ROANOKE        FAIR      78  73  84 N6        30.03S
BLACKSBURG     FAIR      79  72  79 CALM      30.10F
DUBLIN*        FAIR      80  71  73 N3        30.09F
MARION*        FAIR      76  71  86 CALM      30.15S
HILLSVILLE*    MOCLDY    74  73  96 SW3       30.11F
RICHLANDS*     FAIR      77  73  87 CALM      30.13S
WISE*          FAIR      75  64  69 CALM      30.15R
ABINGDON*      FAIR      77  71  80 CALM      30.10S
$$

MDZ021>025-VAZ099-100-270400-
SOUTHERN MARYLAND AND THE DELMARVA PENINSULA

CITY           SKY/WX    TMP DP  RH WIND       PRES   REMARKS
PATUXENT RIVER CLOUDY    82  77  84 SW6       29.93S
BAY BRIDGE APT CLOUDY    84  73  70 SW5       29.93S
LEONARDTOWN      N/A    N/A N/A N/A MISG        N/A
DOVER          CLEAR     81  78  91 S5        29.92R
GEORGETOWN     CLOUDY    79  73  82 CALM      29.94S
EASTON         NOT AVBL
CAMBRIDGE      CLOUDY    79  75  89 CALM      29.93F
SALISBURY      CLOUDY    79  74  84 CALM      29.94R
OCEAN CITY     CLOUDY    77  75  93 CALM      29.94R
WALLOPS ISLAND FAIR      80  77  90 S5        29.93F
ACCOMACK*      FAIR      79  75  89 CALM      29.93F
$$

NCZ012>017-030>032-270400-
NORTH CENTRAL AND EASTERN NORTH CAROLINA

CITY           SKY/WX    TMP DP  RH WIND       PRES   REMARKS
ROANOKE RAPIDS FAIR      73  73 100 CALM      29.97R
RALEIGH        TSTM      76  71  85 W13       30.00R FOG
ELIZABETH CITY CLOUDY    77  75  93 W3        29.96R
AHOSKIE*       PTCLDY    75  75  98 CALM      29.97R FOG
EDENTON*       CLOUDY    83  83 100 S5        29.96S HX  99
CURRITUCK*     CLOUDY    78  77  96 CALM      29.95R
KILL DEVIL HLS CLOUDY    80  76  89 CALM      29.94S
MANTEO           N/A     78  78 100 S6        29.95F
CAPE HATTERAS  CLOUDY    83  76  79 SW12      29.96R
TARBORO*       MOCLDY    81  77  88 CALM      29.98R
GOLDSBORO      CLEAR     85  79  83 S6        29.96R HX  97
WASHINGTON     PTCLDY    83  76  78 SW9G16    29.97R
GREENVILLE     CLOUDY    86  79  79 SW9       29.98R HX  99
NEW BERN       CLEAR     80  75  84 SW8       29.98S
WILMINGTON     CLEAR     81  76  84 SW9       30.00R
$$

VAZ048-270400-
ELSEWHERE

CITY           SKY/WX    TMP DP  RH WIND       PRES   REMARKS
HARRISBURG PA  CLOUDY    82  74  76 CALM      29.91F
BALTIMORE      CLOUDY    80  71  74 SW3       29.93R
ANNAPOLIS      CLOUDY    82  76  81 CALM      29.92F
ANDREWS AFB    FAIR      83  69  62 W5        29.93F
PHILADELPHIA   CLOUDY    83  73  72 W6        29.92F
GREENSBORO     MOCLDY    84  74  71 CALM      29.99S
ROCKY MOUNT    CLOUDY    82  77  84 SW5       29.96S
$$

VAZ100-270400-
MARINE

STATION/POSITION TIME  TEMP    WIND        PRES    WAVE   SWELL
                       AIR SEA DIR/SP/G            HT/PER HT/PER
                 (UTC) (F)     (DEG/KT/KT) (MB)    (FT/S) (FT/S)
BRANDYWINE LGT   0200   81                   N/A
CAPE MAY NJ      0200   80 76                N/A
LEWES DE         0200   82 74                N/A
OCEAN-CITY-INLET 0200   78 76                N/A
WACHAPREAGUE VA  0200   82                   N/A
THOMAS POINT MD  0300   85 84  230/  5/  5 1014.9S
GOOSES REEF MD   0200   86 86  230/  6/  8 1014.6R   1
COVE POINT MD    0200   84                   N/A
SOLOMONS ISLAND  0200   84 86                N/A
BISHOPS HEAD MD  0200   86                   N/A
PINEY POINT MD   0206          230/  7/  8   N/A
POTOMAC MD       0200   84 86  220/ 10/ 12 1012.9R   1
CAMBRIDGE MD     0200   85 88                N/A
LEWISETTA VA     0200   83 88                N/A
RAPPAHANNOCK LGT 0206          180/  5/  6 1014.5
STINGRAY PT      0200   85 86  170/  4/  4 1014.2S   1
YORK RVR RNG VA  0200   83                   N/A
YORKTOWN VA      0200   82 84                N/A
JAMESTOWN VA     0200   82 90   10/  2/  4   N/A     0
DOMINION TERM VA 0200   82                   N/A
KIPTOPEKE VA     0200      81                N/A
CHES BAY BRIDGE  0200   83 80                N/A
CAPE HENRY VA    0200   81                   N/A
WILLOUBY STN VA  0200   83                   N/A
CAPE HENRY BUOY  0212      77                N/A     2/ 6
1ST LANDING BUOY 0200   82 80  210/  4/  6 1013.5R
CAPE CHARLES BUO 0226      77                N/A     2/ 6
OFFSHORE WE BUOY 0221      83                N/A     2/ 6
64NM E OF VA BCH 0250   81 80   80/  4/  4 1013.5F   3/ 6   3/ 6
DUCK PIER NC     0200   80 67                N/A
44100 DUCK FRF   0205      77                N/A     2/ 6
44056 DUCK FRF   0211      72                N/A     1/ 6
OREGON INLET NC  0200   84 86                N/A
HATTERAS NC      0200   83 83                N/A
DIAMOND SHLS NC  0250   85 84  230/ 19/ 23 1014.2F   4/ 6
CAPE LOOKOUT NC  0300   83     220/ 12/ 15 1015.1R
$$




USA.gov is the U.S. government's official web portal to all federal, state and local government web resources and services.